Preview of NWS' New Version of Forecast
This preview is not operational and should not be used for support decisions.

Regional Weather Roundup (RWR)

Issued by National Weather Service (NWS)

                            
000
ASUS43 KDTX 182301
RWRMI 
MICHIGAN HOURLY REGIONAL WEATHER ROUNDUP
NATIONAL WEATHER SERVICE DETROIT/PONTIAC MI
600 PM EST MON FEB 18 2019

NOTE: "FAIR" INDICATES FEW OR NO CLOUDS BELOW 12,000 FEET WITH NO
SIGNIFICANT WEATHER AND/OR OBSTRUCTION TO VISIBILITY.

MIZ047>049-052>055-059>063-066>070-074>076-081>083-190000-
SOUTHEAST LOWER MICHIGAN
  
CITY           SKY/WX    TMP DP  RH WIND       PRES   REMARKS
ADRIAN         FAIR      25  12  58 NW7       30.39R WCI  17          
ALMA           FAIR      21   3  46 CALM      30.39R                  
ANN ARBOR      FAIR      24  10  55 NW9       30.37R WCI  14          
BAD AXE        FAIR      17  10  73 CALM      30.37R                  
CARO           FAIR      14   7  72 CALM      30.38R                  
DETROIT CITY   FAIR      24  13  62 N8        30.38R WCI  15          
DETROIT        FAIR      25  11  55 N8        30.38R WCI  16          
FLINT          FAIR      22   9  57 CALM      30.38R                  
GROSSE ILE     FAIR      26  13  56 N6        30.37R WCI  20          
HILLSDALE      FAIR      23  11  61 CALM      30.36R                  
HOWELL         FAIR      23   9  56 CALM      30.37R HAZE             

CITY           SKY/WX    TMP DP  RH WIND       PRES   REMARKS
JACKSON        FAIR      24  11  57 W6        30.37R WCI  17          
LAMBERTVILLE   FAIR      26  14  61 NW5       30.40R WCI  20          
LANSING        FAIR      22   9  57 N3        30.39R                  
LAPEER         FAIR      20   8  61 CALM      30.37R                  
MASON          FAIR      22   9  56 CALM      30.38R                  
MONROE         FAIR      27  13  56 N5        30.38R WCI  21          
MT. CLEMENS    FAIR      22  12  67 N8          N/A  WCI  12          
PONTIAC        FAIR      22   9  57 NW7       30.35R WCI  13          
PORT HOPE        N/A     18  10  71 NW5       30.38R WCI  11          
PORT HURON     FLURRIES  19  10  68 N7        30.38R WCI  10          
TRI CITIES     FAIR      21   7  54 SE3       30.39R                  
MIDLAND        FAIR      26   6  42 CALM      30.38R                  
TROY           FAIR      24  10  53 N7        30.40R WCI  16          
SAGINAW HB     FAIR      19  10  68 SE3       30.39R                  
$$
MIZ043>046-050>051-056>058-064>065-071>073-077>080-190000-
SOUTHWEST LOWER MICHIGAN
  
CITY           SKY/WX    TMP DP  RH WIND       PRES   REMARKS
BATTLE CREEK   MOCLDY    24   9  52 NW8       30.38R WCI  15          
BENTON HARBOR  CLOUDY    27  15  61 NW7       30.43R WCI  19          
BIG RAPIDS     FAIR      26   6  43 NW7       30.36R WCI  18          
COLDWATER      MOCLDY    25  14  63 W5        30.38R WCI  19          
FREMONT        FAIR      24   9  53 NW10      30.40R WCI  13          
HOLLAND        FAIR      26   8  46 NW7       30.41R WCI  18          
GRAND RAPIDS   FAIR      25   7  46 NW7       30.39R WCI  17          
IONIA          FAIR      23   2  39 NW3       30.37R                  
KALAMAZOO      FAIR      25  11  55 N8        30.38R WCI  16          
LUDINGTON      CLOUDY    21  11  64 N8        30.43R WCI  12          
MARSHALL       FAIR      24  13  60 CALM      30.37R                  
MOUNT PLEASANT FAIR      25   3  39 W5        30.38R WCI  19          
MUSKEGON       FAIR      24   9  52 NW12      30.42R WCI  13          
SOUTH HAVEN    CLOUDY    27  14  59 N10G16    30.41S WCI  17          
$$
MIZ016>042-190000-
NORTHERN LOWER MICHIGAN
  
CITY           SKY/WX    TMP DP  RH WIND       PRES   REMARKS
ALPENA         FAIR      13   2  61 N8        30.39R WCI   2          
BEAVER ISLAND  FAIR      14   4  64 NW7       30.43R WCI   4          
BELLAIRE       FAIR      16   4  58 CALM      30.44R                  
CADILLAC       FAIR      15   2  57 N7        30.35R WCI   5          
CHARLEVOIX     CLOUDY    18   7  64 NW5       30.46R WCI  11          
FRANKFORT      CLOUDY    19   9  63 CALM      30.44R                  
GAYLORD        FAIR      12   3  67 NW8       30.35R WCI   0          
GRAYLING       FAIR      14   6  68 W8        30.37R WCI   3          
HARBOR SPRINGS FAIR      15   2  57 W6        30.42R WCI   6          
HOUGHTON LAKE  FAIR      16   5  62 NW9       30.37R WCI   4          
MANISTEE       CLOUDY    19  10  68 N7        30.44R WCI  10          
OSCODA         FAIR      17   4  56 N5        30.38R WCI  10          
PELLSTON       FAIR      10   1  67 NW8       30.42R WCI  -2          
ROGERS CITY    FAIR      14   2  58 NW6       30.41R WCI   5          
TRAVERSE CITY  FLURRIES  18   8  65 N3        30.43R                  
$$
MIZ007>008-015-190000-
EASTERN UPPER MICHIGAN
  
CITY           SKY/WX    TMP DP  RH WIND       PRES   REMARKS
KINROSS        FAIR       8   2  76 NW9       30.40R WCI  -5          
MACKINAC ISLAN FAIR      13   1  59 CALM      30.40R                  
NEWBERRY       CLOUDY    13   5  69 MISG      30.40R                  
S. S. MARIE    FAIR      10   2  69 NW10      30.40R WCI  -4          
MUNISING         N/A     14   3  61 NW8       30.45R WCI   3          
$$
MIZ004>006-011>014-085-190000-
CENTRAL UPPER MICHIGAN
  
CITY           SKY/WX    TMP DP  RH WIND       PRES   REMARKS
MANISTIQUE     CLOUDY    15  -1  49 NW8       30.43R WCI   5          
ESCANABA       FAIR      18   6  59 NE6       30.45R WCI  10          
MENOMINEE      FAIR      19  10  68 SE7       30.46  WCI  10          
SAWYER-GWINN   MOCLDY    10   5  79 NE6       30.39R WCI   1          
$$
MIZ001>003-009>011-084-190000-
WESTERN UPPER MICHIGAN
  
CITY           SKY/WX    TMP DP  RH WIND       PRES   REMARKS
IRON MOUNTAIN  FAIR      16   3  56 NW6       30.38R WCI   7          
HOUGHTON       FAIR       8  -2  63 W9        30.41S WCI  -5          
COPPER HARBOR    N/A      8  -1  66 N6        30.46R WCI  -2          
IRONWOOD       FAIR      12  -2  53 W5        30.43R WCI   4          
$$

ABBREVIATIONS USED IN REMARKS
   TC - TEMPERATURE IN CELSIUS
  WCI - WIND CHILL INDEX
   HX - HEAT INDEX
  VSB - VISIBILITY